Flag for U.S.A. Weather past 2 weeks in Augusta, Maine, U.S.A.

Now
28 °F

Light snow. Ice fog.


Feels Like: 20 °F
Forecast: 25 / 40 °F
Wind: 8 mph from Southwest

Location: Augusta State Airport

Current Time: Mar 4, 2015 at 2:06:44 AM

Latest Report: Mar 4, 2015 at 1:01 AM


Visibility: 2 mi

Pressure: 29.71 "Hg

Humidity: 93%

Dew point: 26 °F

Location of AugustaLocation

Historic Weather in Augusta — Graph

°F

Augusta temperature yesterday

Maximum temperature yesterday: 28 °F (at 2:53 PM)
Minimum temperature yesterday: 10 °F (at 5:53 AM)
Average temperature yesterday: 20 °F

Past Weeks' High & Low Weather Summary

 TemperatureHumidityPressure
High32 °F (Feb 22, 1:53 PM)96% (Feb 21, 9:53 PM)30.69 "Hg (Feb 21, 9:53 PM)
Low-9 °F (Feb 24, 12:53 AM)20% (Mar 3, 2:53 PM)29.44 "Hg (Feb 19, 8:02 PM)
Average15 °F57%30.08 "Hg
* Reported Feb 17 2:53 AM — Mar 4 1:01 AM, Augusta, Weather by CustomWeather, © 2015

Note: Actual official high and low records may vary slightly from our data, if they occured in-between our weather recording intervals... More about our weather records

Advertising

Augusta weather history for previous 24 hours

 ConditionsComfort  
Time TempWeatherWind HumidityBarometerVisibility
1:01 AM
Wed, Mar 4
28 °FLight snow. Ice fog.8 mph93%29.71 "Hg2 mi
11:53 PM
Tue, Mar 3
25 °FSnow. Ice fog.7 mph92%29.78 "Hg1 mi
11:02 PM25 °FSnow. Ice fog.12 mph88%29.82 "Hg1 mi
10:53 PM25 °FLight snow. Ice fog.10 mph88%29.85 "Hg1 mi
10:04 PM24 °FLight snow. Ice fog.9 mph88%29.90 "Hg1 mi
9:04 PM23 °FLight snow. Ice fog.12 mph85%29.95 "Hg1 mi
8:53 PM23 °FLight snow. Overcast.9 mph78%29.98 "Hg1 mi
7:53 PM24 °FMostly cloudy.9 mph57%30.03 "Hg10 mi
6:53 PM23 °FOvercast.9 mph50%30.09 "Hg10 mi
5:53 PM23 °FPassing clouds.9 mph46%30.13 "Hg10 mi
4:53 PM25 °FSunny.12 mph37%30.15 "Hg10 mi
3:53 PM27 °FSunny.8 mph27%30.18 "Hg10 mi
2:53 PM28 °FSunny.7 mph20%30.22 "Hg10 mi
1:53 PM27 °FSunny.7 mphN/A30.25 "Hg10 mi
12:53 PM25 °FSunny.8 mph23%30.29 "Hg10 mi
11:53 AM23 °FSunny.8 mph26%30.32 "Hg10 mi
10:53 AM20 °FSunny.8 mph29%30.35 "Hg10 mi
9:53 AM17 °FSunny.9 mph32%30.35 "Hg10 mi
8:53 AM15 °FSunny.7 mph35%30.35 "Hg10 mi
7:53 AM13 °FSunny.12 mph40%30.34 "Hg10 mi
6:53 AM11 °FSunny.12 mph44%30.34 "Hg10 mi
5:53 AM10 °FClear.5 mph43%30.31 "Hg10 mi
4:53 AM12 °FClear.3 mph42%30.28 "Hg10 mi
3:53 AM13 °FClear.10 mph42%30.24 "Hg10 mi
2:53 AM14 °FClear.14 mph42%30.21 "Hg10 mi
Weather by CustomWeather, © 2015

See weather overviewHow to use our weather pages